Simultaneous Nadir Overpasses (SNOs) Predictions

Prediction of SNOs between NOAA-15 and METOP-C Satellite Orbit:

Table of predicted SNOs for the next 14.0 days since TLE Epoch: 9/18/2021
Index Date (NOAA-15) Time (NOAA-15) Lat,Lon (NOAA-15) SZA (NOAA-15 ) Date (METOP-C) Time (METOP-C) Lat,Lon (METOP-C) SZA (METOP-C ) Distance(km) Time Diff (sec)
1 09/22/2021 05:01:18 81.03, 142.07 82.80 09/22/2021 05:00:07 81.04, 141.91 82.76 2.80 71
2 09/22/2021 05:51:54 -81.05, -50.96 97.22 09/22/2021 05:50:48 -81.03, -50.79 97.24 3.39 66
3 09/22/2021 06:42:20 81.03, 116.86 82.83 09/22/2021 06:41:28 81.04, 116.77 82.81 2.23 52
4 09/22/2021 07:32:55 -81.03, -75.81 97.16 09/22/2021 07:32:09 -81.04, -75.94 97.19 2.61 46
5 09/22/2021 08:23:23 81.04, 91.28 82.84 09/22/2021 08:22:50 81.04, 91.25 82.81 0.99 33
6 09/22/2021 09:13:58 -81.05,-101.38 97.16 09/22/2021 09:13:31 -81.04,-101.45 97.18 1.59 27
7 09/22/2021 10:04:25 81.04, 66.07 82.87 09/22/2021 10:04:11 81.05, 66.11 82.87 0.71 14
8 09/22/2021 10:55:00 -81.04,-126.60 97.13 09/22/2021 10:54:52 -81.04,-126.60 97.13 0.03 8
9 09/22/2021 11:45:27 81.04, 40.86 82.90 09/22/2021 11:45:32 81.05, 40.96 82.92 2.28 5
10 09/22/2021 12:36:02 -81.04,-151.81 97.09 09/22/2021 12:36:13 -81.05,-151.74 97.08 1.64 11
11 09/22/2021 13:26:30 81.05, 15.27 82.90 09/22/2021 13:26:54 81.05, 15.44 82.93 3.10 24
12 09/22/2021 14:17:05 -81.05,-177.39 97.09 09/22/2021 14:17:35 -81.04,-177.25 97.07 2.59 30
13 09/22/2021 15:07:32 81.05, -9.94 82.94 09/22/2021 15:08:16 81.04, -10.07 82.93 2.79 44
14 09/22/2021 15:58:06 -81.04, 157.77 97.03 09/22/2021 15:58:56 -81.05, 157.60 97.02 3.38 50
15 09/22/2021 16:48:34 81.05, -35.15 82.97 09/22/2021 16:49:37 81.05, -35.22 82.98 1.25 63



Historial Predications of SNOs between NOAA-15 and METOP-C
